Regional Weather Roundup
Issued by NWS Charleston, SC

Current Version | Previous Version | Text Only | Print | Product List | Glossary Off
Versions: 1 2 3 4 5 6 7 8 9 10 11 12 13 14 15 16 17 18 19 20 21 22 23 24 25 26 27 28 29 30 31 32 33 34 35 36 37 38 39 40 41 42 43 44 45 46 47 48 49 50

000
ASUS42 KCHS 251327
RWRCHS

Regional Weather Roundup
National Weather Service Charleston SC
900 AM EDT FRI MAY 25 2018

NOTE: "fair" indicates few or no clouds below 12,000 feet with no
significant weather and/or obstructions to visibility.

Not all stations are quality controlled. Use data with caution,
especially dewpoint observations.

SCZ027-030-031-034>040-042>050-251400-
...Southeast South Carolina...

CITY           SKY/WX    TMP DP  RH WIND       PRES   REMARKS
N Charleston   FAIR      79  72  79 E6        30.10R
Waterfront Prk   N/A     79  72  79 E7        29.94R
Mount Pleasant PTSUNNY   81  73  78 E7        30.11R
Johns Island   FAIR      81  73  78 E7        30.10S
Pinopolis      NOT AVBL
Moncks Corner  CLOUDY    75  72  88 E5        30.11R FOG
Summerville    FAIR      75  72  88 CALM      30.12R
Beaufort MCAS  PTSUNNY   80  76  87 CALM      30.09R
Beaufort Arpt  PTSUNNY   79  73  83 SE5       30.09R
Hilton Head Is MOSUNNY   77  73  88 SE8       30.10R
Walterboro     FAIR      75  72  88 E5        30.11S
Allendale      CLOUDY    73  73 100 CALM      30.09S

...Southern Midlands and Pee Dee...

CITY           SKY/WX    TMP DP  RH WIND       PRES   REMARKS
Georgetown     FAIR      77  77 100 E6        30.13R
Kingstree      PTSUNNY   73  72  94 SE5       30.12S
Orangeburg     PTSUNNY   74  71  91 SE6       30.11R
Barnwell       PTSUNNY   73  72  94 E6        30.10S
Aiken          HVY RAIN  68  68 100 CALM      30.14S
Manning        PTSUNNY   70  68  94 SE3       30.12R
Columbia       CLOUDY    75  73  93 E8        30.10S
Sumter         CLOUDY    73  70  88 SE7       30.10R
Florence       CLOUDY    75  71  87 S7        30.13R
Myrtle Beach   FAIR      76  72  87 E7        30.13R
N Myrtle Beach FAIR      77  72  84 E8        30.11S

$$

GAZ063-065-086>088-099>101-113>116-118-119-134>141-150-251400-
...Southeast Georgia...

CITY           SKY/WX    TMP DP  RH WIND       PRES   REMARKS
Savannah Arpt  PTSUNNY   78  74  87 SE6       30.08S
Hunter AAF     FAIR      78  75  93 S7        30.06S
Fort Stewart   FAIR      74  73  97 CALM      30.07R
Statesboro     PTSUNNY   73  69  89 CALM      30.08S
Sylvania       CLOUDY    75  75  99 SE3       30.10R
Claxton        PTSUNNY   76  75  95 CALM      30.08S FOG

...CSRA, Central and far Southeast Georgia...

CITY           SKY/WX    TMP DP  RH WIND       PRES   REMARKS
Thomson        CLOUDY    70  69  96 SE7       30.15R
Augusta-Bush   LGT RAIN  72  70  93 E3        30.08S
Augusta-Daniel LGT RAIN  71  70  96 E7        30.10S FOG
Swainsboro     CLOUDY    73  73 100 SE6       30.10R
Vidalia        CLOUDY    77  70  78 SE3       30.09R
Eastman        CLOUDY    75  65  69 E3        30.11R
Hazlehurst       N/A     76  70  84 SE3       30.07R
Alma           CLOUDY    74  72  93 SE6       30.07R
Waycross       CLOUDY    75  72  91 S5        30.07R
Jesup          PTSUNNY   79  72  79 CALM      30.08R
Baxley         CLOUDY    72  72 100 SE3       30.07S FOG
Brunswick      CLOUDY    79  70  73 SE8       30.08S
Saint Simons   FAIR      80  75  84 SE9       30.07S

$$

SCZ027-028-034-036>038-045-046-048>050-GAZ119-141-251400-
...Lake and Supplemental Coastal Observations...

STATION/POSITION TIME  TEMP    WIND        PRES    WAVE   SWELL
                       AIR SEA DIR/SP/G            HT/PER HT/PER/DIR
                 (UTC) (F)     (DEG/KT/KT) (MB)    (FT/S) (FT/S/D)
Winyah Bay       1245   77      80/  5     1020.0S
Lake Murray      1220   73      70/  4/  9 1018.6S
ACE Basin NERRS  1245   80     110/  3     1019.0S
Fort Pulaski     1300   80 79  160/  4/  6 1019.1
Sapelo Island    1300   81     140/  6     1018.0

$$

ANZ835-935-AMZ111-154-330-350-352-354-370-450-454-472-251400-
...C-MAN and Buoy Observations...

STATION/POSITION TIME  TEMP    WIND        PRES    WAVE   SWELL
                       AIR SEA DIR/SP/G            HT/PER HT/PER/DIR
                 (UTC) (F)     (DEG/KT/KT) (MB)    (FT/S) (FT/S/D)
Buoy 41004       1300      76  110/  4/  6 1019.6
Buoy 41008       1250   77 77  100/  4/  6 1018.4R   2/ 9   2/120/ 9
Folly Beach CMAN 1300   77     110/  8/  9 1020.0R
Capers Nearshore 1308   77 77  100/  8/ 10 1020.4R
Fripp Nearshore  1308   78 78  150/  6/  8 1018.9R


STATION/POSITION TIME  TEMP    WIND        PRES    WAVE   SWELL
                       AIR SEA DIR/SP/G            HT/PER HT/PER/DIR
                 (UTC) (F)     (DEG/KT/KT) (MB)    (FT/S) (FT/S/D)
5E St. Marys GA  1300      77                N/A     2/ 9
Frying Pan Buoy  1300   76 77  120/  6/  8 1019.9
Buoy 41025       1300   77 78  130/  8/ 10 1021.3
Cape Lookout NC  1200          100/  4/  4 1020.5R
Buoy 41002       1300      78  150/  6/  8 1020.2
Buoy 41010       1300   78 79  110/ 12/ 14 1019.3
St Augustine FL  1300   77 78  120/  2/  2 1018.6R


$$



USA.gov is the U.S. government's official web portal to all federal, state and local government web resources and services.